• In Portugal
  • List of Countries
  • For 7 days
  • Water Temperature
  • Satellite Maps
  • Weather Map
  • Weather Widgets
  • user-avatar
    Login

    Hourly Weather Taungdżi

    Today, 23 February, Friday

    Time Temperature Precipitation Wind Pressure Humidity
    00:00 +14°C° 0 mm 1 mps 647 mmHg 33%
    01:00 +14°C° 0 mm 1 mps 647 mmHg 33%
    02:00 +13°C° 0 mm 1 mps 647 mmHg 33%
    03:00 +13°C° 0 mm 1 mps 647 mmHg 32%
    04:00 +13°C° 0 mm 1 mps 647 mmHg 33%
    05:00 +13°C° 0 mm 1 mps 647 mmHg 33%
    06:00 +13°C° 0 mm 1 mps 647 mmHg 34%
    07:00 +16°C° 0 mm 1 mps 649 mmHg 31%
    08:00 +21°C° 0 mm 1 mps 650 mmHg 28%
    09:00 +25°C° 0 mm 1 mps 652 mmHg 25%
    10:00 +26°C° 0 mm 2 mps 651 mmHg 23%
    11:00 +27°C° 0 mm 3 mps 651 mmHg 21%
    12:00 +28°C° 0 mm 4 mps 651 mmHg 18%
    13:00 +28°C° 0 mm 4 mps 651 mmHg 18%
    14:00 +28°C° 0 mm 4 mps 650 mmHg 17%
    15:00 +28°C° 0 mm 4 mps 649 mmHg 17%
    16:00 +25°C° 0 mm 3 mps 649 mmHg 21%
    17:00 +23°C° 0 mm 2 mps 648 mmHg 25%
    18:00 +20°C° 0 mm 1 mps 647 mmHg 29%
    19:00 +19°C° 0 mm 1 mps 648 mmHg 30%
    20:00 +18°C° 0 mm 1 mps 648 mmHg 30%
    21:00 +16°C° 0 mm 1 mps 648 mmHg 31%
    22:00 +16°C° 0 mm 1 mps 648 mmHg 31%
    23:00 +16°C° 0 mm 1 mps 648 mmHg 31%

    Tomorrow, 24 February, Saturday

    Time Temperature Precipitation Wind Pressure Humidity
    00:00 +15°C° 0 mm 1 mps 648 mmHg 31%
    01:00 +15°C° 0 mm 1 mps 648 mmHg 31%
    02:00 +15°C° 0 mm 1 mps 648 mmHg 32%
    03:00 +14°C° 0 mm 1 mps 648 mmHg 32%
    04:00 +14°C° 0 mm 1 mps 648 mmHg 33%
    05:00 +14°C° 0 mm 1 mps 648 mmHg 33%
    06:00 +14°C° 0 mm 1 mps 649 mmHg 34%
    07:00 +19°C° 0 mm 1 mps 650 mmHg 31%
    08:00 +22°C° 0 mm 1 mps 652 mmHg 27%
    09:00 +26°C° 0 mm 1 mps 654 mmHg 24%
    10:00 +27°C° 0 mm 2 mps 653 mmHg 22%
    11:00 +28°C° 0 mm 2 mps 653 mmHg 19%
    12:00 +29°C° 0 mm 3 mps 653 mmHg 17%
    13:00 +29°C° 0 mm 3 mps 652 mmHg 16%
    14:00 +29°C° 0 mm 3 mps 652 mmHg 15%
    15:00 +29°C° 0 mm 3 mps 651 mmHg 14%
    16:00 +26°C° 0 mm 3 mps 650 mmHg 19%
    17:00 +23°C° 0 mm 2 mps 650 mmHg 23%
    18:00 +20°C° 0 mm 1 mps 649 mmHg 27%
    19:00 +19°C° 0 mm 1 mps 649 mmHg 28%
    20:00 +18°C° 0 mm 1 mps 650 mmHg 30%
    21:00 +16°C° 0 mm 1 mps 650 mmHg 31%
    22:00 +16°C° 0 mm 1 mps 650 mmHg 32%
    23:00 +16°C° 0 mm 1 mps 649 mmHg 33%

    Day after tomorrow, 25 February, Sunday

    Time Temperature Precipitation Wind Pressure Humidity
    00:00 +15°C° 0 mm 1 mps 649 mmHg 33%
    01:00 +15°C° 0 mm 1 mps 649 mmHg 34%
    02:00 +15°C° 0 mm 1 mps 649 mmHg 34%
    03:00 +14°C° 0 mm 1 mps 649 mmHg 34%
    04:00 +14°C° 0 mm 1 mps 649 mmHg 34%
    05:00 +14°C° 0 mm 1 mps 649 mmHg 34%
    06:00 +14°C° 0 mm 1 mps 649 mmHg 34%
    07:00 +19°C° 0 mm 1 mps 651 mmHg 30%
    08:00 +22°C° 0 mm 1 mps 652 mmHg 25%
    09:00 +26°C° 0 mm 1 mps 654 mmHg 21%
    10:00 +28°C° 0 mm 1 mps 654 mmHg 19%
    11:00 +29°C° 0 mm 1 mps 654 mmHg 18%
    12:00 +31°C° 0 mm 1 mps 653 mmHg 16%
    13:00 +31°C° 0 mm 2 mps 652 mmHg 16%
    14:00 +30°C° 0 mm 2 mps 652 mmHg 16%
    15:00 +30°C° 0 mm 2 mps 651 mmHg 16%
    16:00 +27°C° 0 mm 2 mps 650 mmHg 20%
    17:00 +24°C° 0 mm 1 mps 649 mmHg 25%
    18:00 +21°C° 0 mm 1 mps 649 mmHg 29%
    19:00 +20°C° 0 mm 1 mps 649 mmHg 31%
    20:00 +19°C° 0 mm 1 mps 649 mmHg 33%
    21:00 +16°C° 0 mm 0 mps 650 mmHg 34%
    22:00 +18°C° 0 mm 1 mps 649 mmHg 35%
    23:00 +18°C° 0 mm 1 mps 649 mmHg 36%

    26 February, Monday

    Time Temperature Precipitation Wind Pressure Humidity
    00:00 +16°C° 0 mm 1 mps 649 mmHg 36%
    01:00 +16°C° 0 mm 1 mps 648 mmHg 37%
    02:00 +16°C° 0 mm 1 mps 648 mmHg 37%
    03:00 +15°C° 0 mm 1 mps 648 mmHg 38%
    04:00 +15°C° 0 mm 1 mps 648 mmHg 38%
    05:00 +15°C° 0 mm 1 mps 648 mmHg 39%
    06:00 +13°C° 0 mm 0 mps 648 mmHg 40%
    07:00 +19°C° 0 mm 1 mps 650 mmHg 34%
    08:00 +23°C° 0 mm 1 mps 652 mmHg 28%
    09:00 +27°C° 0 mm 1 mps 653 mmHg 23%
    10:00 +29°C° 0 mm 1 mps 653 mmHg 20%
    11:00 +31°C° 0 mm 1 mps 653 mmHg 18%
    12:00 +33°C° 0 mm 1 mps 653 mmHg 15%
    13:00 +32°C° 0 mm 1 mps 652 mmHg 15%
    14:00 +31°C° 0 mm 2 mps 651 mmHg 15%
    15:00 +30°C° 0 mm 2 mps 650 mmHg 14%
    16:00 +28°C° 0 mm 2 mps 649 mmHg 18%
    17:00 +25°C° 0 mm 1 mps 648 mmHg 22%
    18:00 +22°C° 0 mm 1 mps 648 mmHg 26%
    19:00 +21°C° 0 mm 1 mps 648 mmHg 27%
    20:00 +20°C° 0 mm 1 mps 648 mmHg 28%
    21:00 +19°C° 0 mm 1 mps 648 mmHg 29%
    22:00 +19°C° 0 mm 1 mps 648 mmHg 30%
    23:00 +18°C° 0 mm 1 mps 648 mmHg 30%

    27 February, Tuesday

    Time Temperature Precipitation Wind Pressure Humidity
    00:00 +18°C° 0 mm 1 mps 648 mmHg 30%
    01:00 +16°C° 0 mm 1 mps 647 mmHg 30%
    02:00 +16°C° 0 mm 1 mps 647 mmHg 31%
    03:00 +15°C° 0 mm 0 mps 647 mmHg 31%
    04:00 +16°C° 0 mm 1 mps 647 mmHg 32%
    05:00 +15°C° 0 mm 1 mps 648 mmHg 32%
    06:00 +15°C° 0 mm 1 mps 648 mmHg 32%
    07:00 +20°C° 0 mm 1 mps 650 mmHg 29%
    08:00 +22°C° 0 mm 0 mps 651 mmHg 25%
    09:00 +26°C° 0 mm 0 mps 653 mmHg 21%
    10:00 +29°C° 0 mm 1 mps 652 mmHg 20%
    11:00 +30°C° 0 mm 1 mps 652 mmHg 18%
    12:00 +31°C° 0 mm 2 mps 651 mmHg 17%
    13:00 +30°C° 0 mm 2 mps 651 mmHg 17%
    14:00 +30°C° 0 mm 2 mps 650 mmHg 17%
    15:00 +30°C° 0 mm 3 mps 649 mmHg 18%
    16:00 +27°C° 0 mm 2 mps 648 mmHg 22%
    17:00 +25°C° 0 mm 2 mps 648 mmHg 27%
    18:00 +22°C° 0 mm 1 mps 647 mmHg 32%
    19:00 +21°C° 0 mm 1 mps 648 mmHg 34%
    20:00 +20°C° 0 mm 1 mps 648 mmHg 36%
    21:00 +19°C° 0 mm 1 mps 648 mmHg 39%
    22:00 +19°C° 0 mm 1 mps 648 mmHg 40%
    23:00 +18°C° 0 mm 1 mps 647 mmHg 41%

    28 February, Wednesday

    Time Temperature Precipitation Wind Pressure Humidity
    00:00 +18°C° 0 mm 1 mps 647 mmHg 43%
    01:00 +16°C° 0 mm 1 mps 647 mmHg 43%
    02:00 +16°C° 0 mm 1 mps 647 mmHg 44%
    03:00 +16°C° 0 mm 1 mps 646 mmHg 45%
    04:00 +15°C° 0 mm 1 mps 647 mmHg 45%
    05:00 +14°C° 0 mm 0 mps 647 mmHg 45%
    06:00 +14°C° 0 mm 0 mps 647 mmHg 45%
    07:00 +20°C° 0 mm 1 mps 649 mmHg 38%
    08:00 +23°C° 0 mm 1 mps 650 mmHg 31%
    09:00 +27°C° 0 mm 1 mps 652 mmHg 24%
    10:00 +29°C° 0 mm 1 mps 652 mmHg 22%
    11:00 +30°C° 0 mm 1 mps 651 mmHg 20%
    12:00 +32°C° 0 mm 1 mps 651 mmHg 18%
    13:00 +32°C° 0 mm 1 mps 650 mmHg 18%
    14:00 +31°C° 0 mm 2 mps 650 mmHg 18%
    15:00 +31°C° 0 mm 2 mps 649 mmHg 18%
    16:00 +28°C° 0 mm 2 mps 648 mmHg 22%
    17:00 +26°C° 0 mm 1 mps 648 mmHg 27%
    18:00 +23°C° 0 mm 1 mps 647 mmHg 31%
    19:00 +22°C° 0 mm 1 mps 647 mmHg 33%
    20:00 +21°C° 0 mm 1 mps 647 mmHg 35%
    21:00 +20°C° 0 mm 1 mps 647 mmHg 37%
    22:00 +19°C° 0 mm 1 mps 647 mmHg 37%
    23:00 +19°C° 0 mm 1 mps 647 mmHg 37%
    Show more